Weather History for LIED - April, 2013

Change the Weather History Date:

Monday, April 8, 2013

  Actual Average Record
Temperature  
Mean Temperature 55 °F -  
Max Temperature 64 °F 69 °F 77 °F (2011)
Min Temperature 46 °F 47 °F 34 °F (2015)
Degree Days  
Heating Degree Days 10    
Growing Degree Days 5 (Base 50)    
Moisture  
Dew Point 49 °F    
Average Humidity 78    
Maximum Humidity 94    
Minimum Humidity 55    
Precipitation  
Precipitation 0.00 in 0.05 in - ()
Sea Level Pressure  
Sea Level Pressure 29.91 in    
Wind  
Wind Speed 6 mph ()    
Max Wind Speed 13 mph    
Max Gust Speed -    
Visibility 7.2 miles    
Events      
Averages and records for this station are not official NWS values.
T = Trace of Precipitation, MM = Missing Value Source: Averaged Metar Reports

Daily Weather History Graph

Daily Weather History Graph

Search for Another Location

Airport or City:

Trip Planner

Search our weather history database for the weather conditions in past years. The results will help you decide how hot, cold, wet, or windy it might be!

Date:

Astronomy

Apr. 08, 2013 Rise Set
Actual Time 6:57 AM CEST 7:54 PM CEST
Civil Twilight 6:30 AM CEST 8:22 PM CEST
Nautical Twilight 5:57 AM CEST 8:54 PM CEST
Astronomical Twilight 5:24 AM CEST 9:28 PM CEST
Moon 5:38 AM CEST (4/8) 6:12 PM CEST (4/8)
Length of Visible Light 13h 51m
Length of Day
12h 57m
Waning Crescent, 4% of the Moon is Illuminated
Apr 8
Waning Crescent
Apr 10
New
Apr 18
First Quarter
Apr 25
Full
May 2
Last Quarter

Hourly Weather History & Observations

Time (CEST) Temp. Dew Point Humidity Pressure Visibility Wind Dir Wind Speed Gust Speed Precip Events Conditions
12:55 AM 53.6 °F 50.0 °F 88% 29.95 in 5.0 mi WNW 10.4 mph - N/A   Scattered Clouds
1:55 AM 53.6 °F 48.2 °F 82% 29.95 in 5.6 mi NW 10.4 mph - N/A   Scattered Clouds
2:00 AM 53 °F 48 °F 78% 29.95 in 6 mi NW 10.4 mph - -   Mist
2:55 AM 53.6 °F 48.2 °F 82% 29.95 in 5.6 mi NW 2.3 mph - N/A   Scattered Clouds
3:55 AM 50.0 °F 48.2 °F 94% 29.92 in 6.2 mi NE 4.6 mph - N/A   Partly Cloudy
5:00 AM 47 °F 45 °F 92% 29.93 in 7 mi NNW 2.3 mph - -   Partly Cloudy
5:55 AM 46.4 °F 44.6 °F 93% 29.92 in 6.2 mi Calm Calm - N/A   Scattered Clouds
7:55 AM 48.2 °F 44.6 °F 87% 29.92 in 4.3 mi Calm Calm - N/A   Mostly Cloudy
8:00 AM 48 °F 45 °F 86% 29.93 in 4 mi Calm Calm - -   Mist
11:00 AM 57 °F 52 °F 77% 29.94 in 7 mi West 3.5 mph - -   Partly Cloudy
12:55 PM 62.6 °F 48.2 °F 59% 29.89 in 6.2 mi West 9.2 mph - N/A   Scattered Clouds
1:55 PM 62.6 °F 50.0 °F 63% 29.89 in 6.2 mi West 9.2 mph - N/A   Scattered Clouds
2:00 PM 63 °F 51 °F 55% 29.90 in 16 mi West 9.2 mph - -   Partly Cloudy
2:55 PM 64.4 °F 50.0 °F 59% 29.86 in 6.2 mi WSW 10.4 mph - N/A   Partly Cloudy
3:55 PM 62.6 °F 50.0 °F 63% 29.86 in 6.2 mi WSW 11.5 mph - N/A   Scattered Clouds
4:55 PM 62.6 °F 51.8 °F 68% 29.86 in 6.2 mi WSW 12.7 mph - N/A   Scattered Clouds
5:00 PM 63 °F 51 °F 56% 29.87 in 16 mi WSW 12.7 mph - -   Partly Cloudy
6:55 PM 59.0 °F 51.8 °F 77% 29.86 in 6.2 mi West 8.1 mph - N/A   Scattered Clouds
8:00 PM 58 °F 52 °F 75% 29.89 in 12 mi WSW 9.2 mph - -   Partly Cloudy
8:55 PM 55.4 °F 51.8 °F 88% 29.89 in 6.2 mi WSW 5.8 mph - N/A   Scattered Clouds
9:55 PM 55.4 °F 51.8 °F 88% 29.92 in 6.2 mi West 5.8 mph - N/A   Partly Cloudy
11:00 PM 56 °F 53 °F 86% 29.91 in 10 mi WSW 4.6 mph - -   Scattered Clouds
11:55 PM 55.4 °F 51.8 °F 88% 29.89 in 6.2 mi SW 3.5 mph - N/A   Partly Cloudy